Regional Weather Roundup
Issued by NWS

Home | Current Version | Previous Version | Text Only | Print | Product List | Glossary On
Versions: 1 2 3 4 5 6 7 8 9 10 11 12 13 14 15 16 17 18 19 20 21 22 23 24 25 26 27 28 29 30 31 32 33 34 35 36 37 38 39 40 41 42 43 44 45 46 47 48 49 50
000
ASUS42 KFFC 261503
RWRGA
WEATHER ROUNDUP FOR GEORGIA
NATIONAL WEATHER SERVICE PEACHTREE CITY GA
1100 AM EDT SAT JUL 26 2014

NOTE: "FAIR" INDICATES FEW OR NO CLOUDS BELOW 12,000 FEET WITH NO
SIGNIFICANT WEATHER AND/OR OBSTRUCTIONS TO VISIBILITY.

* = USE WITH CAUTION. THE STATIONS MARKED WITH AN ASTERISK MAY NOT
REPORT WEATHER SUCH AS PRECIPITATION, FOG, OR THUNDER AND ARE NOT
QUALITY CONTROLLED BY NWS.

THE REMARK "TC" DENOTES TEMPERATURE READING IN DEGREES CELSIUS.

GAZ001>058-261600-
NORTH GEORGIA

CITY           SKY/WX    TMP DP  RH WIND       PRES   REMARKS
ATLANTA        MOSUNNY   83  66  56 W10G18    30.08S
ATHENS         SUNNY     85  67  54 CALM      30.07S
CHAMBLEE       SUNNY     83  65  54 W6        30.08S
PEACHTREE CITY MOSUNNY   84  66  54 NW9       30.09R
ROME           SUNNY     79  67  66 SW3       30.07S
WEST ATLANTA   SUNNY     83  65  54 W10       30.07S
GAINESVILLE    SUNNY     81  64  56 W9        30.11R
CARTERSVILLE   SUNNY     81  67  62 CALM      30.08S


CITY           SKY/WX    TMP DP  RH WIND       PRES   REMARKS
DALTON*        SUNNY     77  68  73 CALM      30.08S
LAWRENCEVILLE* SUNNY     81  61  50 W7        30.08R
MARIETTA       SUNNY     82  68  62 W10       30.09R
KENNESAW*      SUNNY     81  64  57 W7        30.10S
$$

GAZ059>098-102>109-261600-
CENTRAL GEORGIA

CITY           SKY/WX    TMP DP  RH WIND       PRES   REMARKS
AUGUSTA-BUSH   SUNNY     84  74  71 CALM      30.03S HX  91
AUGUSTA-DANIEL SUNNY     86  73  65 CALM      30.05R HX  93
COLUMBUS       SUNNY     85  69  58 VRB5      30.07S
MACON          SUNNY     86  71  60 NW6       30.06R HX  91
ROBINS AFB     SUNNY     87  73  62 NW7       30.05S HX  94


CITY           SKY/WX    TMP DP  RH WIND       PRES   REMARKS
LAGRANGE*      SUNNY     88  72  58 NW9       30.08S HX  94
SYLVANIA*      PTSUNNY   84  79  85 CALM      30.06R HX  95
MILLEDGEVILLE* SUNNY     66  55  68 CALM      30.05S
$$

GAZ099>101-110>166-261600-
SOUTH GEORGIA

CITY           SKY/WX    TMP DP  RH WIND       PRES   REMARKS
SAVANNAH       PTSUNNY   87  74  64 W8        30.04F HX  95
VALDOSTA       MOSUNNY   88  76  67 VRB5      30.07F HX  99
ALMA           PTSUNNY   83  75  77 SW8       30.07R HX  90
ST SIMONS      PTSUNNY   84  74  71 W10       30.06S HX  91
FT STEWART     PTSUNNY   85  74  71 W9        30.04S HX  92
ALBANY         MOSUNNY   85  75  72 CALM      30.09S HX  93
HUNTER AFB     PTSUNNY   86  75  70 W10       30.03S HX  95
MOODY AFB      MOSUNNY   85  83  91 SW8       30.07S FOG     HX 104
BRUNSWICK      MOSUNNY   86  73  66 SW13      30.06F HX  93


CITY           SKY/WX    TMP DP  RH WIND       PRES   REMARKS
BAINBRIDGE*    MOSUNNY   86  79  79 W7        30.08S HX  99
MOULTRIE*      MOSUNNY   82  77  83 W5        30.09R HX  91
VIDALIA*         N/A     84  77  79 W3        30.06S HX  94
WAYCROSS*      PTSUNNY   87  79  77 NW3       30.07S HX 102
DOUGLAS*       CLOUDY    86  77  74 S6        30.09R HX  97
$$



USA.gov is the U.S. government's official web portal to all federal, state and local government web resources and services.